[[{"header":{"parameterUnit":"m.s-1","parameterCategory":1,"la1":30.2991,"la2":30.254,"lo1":-89.0895,"lo2":-89.0444,"dy":0.0017,"dx":0.0017,"nx":28,"ny":28,"refTime":"2023-09-04T21:00:00:Z","depth":0,"parameterNumber":2,"parameterNumberName":"U-component_of_WINDS"},"data":[0,0,0,0,0,0,0,0,0,0,0,0,0,0,0,0,0,0,0,0,0,0,0,0,0,0,0,0,0,0,0,0,0,0,0,0,0,0,0,0,0,0,0,0,0,0,0,0,0,0,0,0,0,0,0,0,0,0,-1.9731,-1.9732,0,-1.9889,-1.9891,-1.9893,-1.9874,-1.9872,-1.9869,-1.9867,-2.0031,-2.0038,-2.0045,0,0,0,0,0,0,0,0,0,0,0,0,0,-1.9414,-1.942,-1.973,-1.9732,-1.9734,-1.9889,-1.9891,-1.9893,-1.9875,-1.9872,-1.9868,-1.9866,-2.0029,-2.0037,-2.0045,0,0,0,0,0,0,0,0,0,0,0,0,0,-1.956,-1.9422,-1.973,-1.9744,-1.9746,-1.9889,-1.9891,-1.9894,-1.9875,-1.9872,-1.9868,-1.9864,-2.0026,-2.0036,-2.0046,-2.0186,0,0,-2.0077,-2.0082,0,0,0,0,0,0,0,0,-1.9552,-1.9572,-1.974,-1.9743,-1.9746,-1.9858,-1.984,-1.9992,-1.9876,-1.9827,-1.9867,-1.9862,-1.9977,-1.9991,-2.0029,-2.0193,-2.02,-2.0078,-2.0084,-2.0089,-2.0092,0,0,0,0,0,0,0,-1.9542,-1.9565,-1.9793,-1.9742,-1.9746,-1.9743,-1.9759,-1.9869,-1.9921,-1.9831,-1.983,-1.9849,-1.9978,-2.0019,-2.0033,-2.0203,-2.0078,-2.0087,-2.0093,-2.0097,-2.0491,-2.0496,0,0,0,0,0,0,-1.9528,-1.9557,-1.9788,-1.9798,-1.9638,-1.9752,-1.977,-1.9826,-1.992,-1.9931,-1.9852,-1.9847,-2.0004,-2.0021,-2.0039,-2.0209,-2.0089,-2.0098,-2.0104,-2.0487,-2.0492,-2.0497,0,0,0,0,0,0,-1.9521,-1.9549,-1.9782,-1.9677,-1.9707,-1.9761,-1.9824,-1.9831,-1.9873,-1.9936,-1.9945,-1.9884,-2.0002,-2.0024,-2.015,-2.0214,-2.0103,-2.0112,-2.0482,-2.0489,-2.0495,-2.055,0,0,0,0,0,0,-1.9512,-1.9546,-1.9599,-1.9678,-1.9712,-1.9889,-1.9828,-1.9837,-1.989,-1.9885,-1.9969,-1.9979,-2.0,-2.0135,-2.016,-2.0226,-2.012,-2.0476,-2.0485,-2.0493,-2.0543,-2.0558,-2.0571,0,0,0,0,0,-1.9501,-1.9608,-1.9602,-1.963,-1.9779,-1.9893,-1.9912,-1.9934,-1.9895,-1.9949,-1.999,-1.9976,-2.0203,-2.0147,-2.0176,-2.0246,-2.0472,-2.0483,-2.0492,-2.0536,-2.0555,-2.057,0,0,0,0,0,0,-1.9535,-1.9619,-1.9613,-1.9749,-1.9814,-1.989,-1.9958,-1.9953,-2.0031,-2.0023,-2.0048,-2.0067,-2.0193,-2.0232,-2.0169,-2.0387,-2.0333,-2.0349,-2.0357,-2.0375,-2.0388,-2.0376,-2.0128,0,0,0,0,0,-1.9559,-1.9644,-1.9712,-1.9826,-1.9859,-1.9903,-1.9954,-1.9965,-2.0034,-2.0061,-2.0111,-2.0179,-2.0266,-2.0323,-2.0406,-2.0549,-2.0567,-2.0611,-2.0625,-2.0636,-2.065,-2.073,-2.075,-2.053,-2.053,-2.0529,0,0,-1.9608,-1.9664,-1.9716,-1.9834,-1.9886,-1.9974,-1.9926,-2.0021,-2.0088,-2.0076,-2.0197,-2.0237,-2.0314,-2.0449,-2.0511,-2.0486,-2.0715,-2.0649,-2.0657,-2.0665,-2.0742,-2.0763,-2.0781,-2.0536,-2.0535,-2.0534,0,0,-1.9743,-1.9793,-1.9894,-1.9947,-2.0026,-2.0055,-2.008,-2.0157,-2.0183,-2.0305,-2.0298,-2.0378,-2.0526,-2.0582,-2.063,-2.0789,-2.0779,-2.0815,-2.0888,-2.0966,-2.0983,-2.0998,-2.1056,-2.1076,-2.0828,-2.0829,-2.0829,0,-1.9794,-1.9926,-1.9947,-2.0043,-2.0096,-2.0089,-2.0192,-2.0243,-2.0346,-2.0383,-2.0353,-2.054,-2.0592,-2.0741,-2.0779,-2.0818,-2.0848,-2.0805,-2.0979,-2.0994,-2.1009,-2.1064,-2.1086,-2.0832,-2.0832,-2.0832,-2.0831,0,-1.9986,-2.0077,-2.0149,-2.0249,-2.031,-2.0409,-2.0446,-2.0505,-2.0512,-2.0545,-2.067,-2.0732,-2.0828,-2.0865,-2.0872,-2.1015,-2.0997,-2.0973,-2.0919,-2.1034,-2.1086,-2.1107,-2.0838,-2.0837,-2.0835,-2.0834,0,0,-2.0145,-2.0256,-2.0282,-2.0327,-2.0415,-2.0487,-2.0587,-2.0681,-2.0732,-2.0804,-2.0889,-2.1015,-2.0994,-2.1048,-2.1062,-2.113,-2.1253,-2.1098,-2.11,-2.1125,-2.1416,-2.1434,-2.1458,-2.1248,-2.1252,-2.1255,-2.141,0,-2.0289,-2.0464,-2.0487,-2.0644,-2.073,-2.0726,-2.0813,-2.0877,-2.0911,-2.0989,-2.1027,-2.1117,-2.1081,-2.1114,-2.1181,-2.1224,-2.1312,-2.1213,-2.1328,-2.1332,-2.1309,-2.1485,-2.1504,-2.1647,-2.143,-2.1434,-2.1436,0,-2.048,-2.0556,-2.0721,-2.0799,-2.0836,-2.0914,-2.1002,-2.1077,-2.1151,-2.1171,-2.1232,-2.1238,-2.1343,-2.1285,-2.143,-2.1363,-2.1411,-2.144,-2.1446,-2.1457,-2.1391,-2.1502,-2.1693,-2.1715,-2.1469,-2.1466,-2.1464,0,-2.058,-2.0725,-2.0843,-2.0882,-2.0975,-2.103,-2.1072,-2.1141,-2.1197,-2.1275,-2.1311,-2.1401,-2.145,-2.152,-2.155,-2.1505,-2.1695,-2.1638,-2.1715,-2.1714,-2.1755,-2.1752,-2.1957,-2.1786,-2.1786,-2.1785,-2.1785,0,-2.0738,-2.084,-2.0889,-2.0962,-2.1076,-2.1102,-2.1214,-2.1254,-2.1316,-2.1397,-2.14,-2.1476,-2.1511,-2.1593,-2.1618,-2.1735,-2.1757,-2.1777,-2.1783,-2.1777,-2.1775,-2.1809,-2.18,-2.1791,-2.179,-2.1789,-2.1788,0,-2.0869,-2.0907,-2.1035,-2.1113,-2.1135,-2.1216,-2.1283,-2.1354,-2.1388,-2.1491,-2.1516,-2.1569,-2.1666,-2.1704,-2.1822,-2.1839,-2.1975,-2.1972,-2.195,-2.1951,-2.2026,-2.2018,-2.226,-2.2293,-2.21,-2.2102,-2.2104,0,-2.0968,-2.1046,-2.1132,-2.1187,-2.123,-2.1317,-2.1374,-2.1404,-2.1463,-2.1553,-2.1614,-2.1711,-2.1789,-2.1945,-2.1995,-2.2086,-2.2086,-2.2164,-2.2099,-2.2092,-2.2087,-2.2082,-2.2091,-2.2176,-2.2178,-2.218,-2.2181,0,-2.1139,-2.1154,-2.1235,-2.1324,-2.1392,-2.1464,-2.1533,-2.1578,-2.1618,-2.1685,-2.1784,-2.1845,-2.1966,-2.2063,-2.2157,-2.2201,-2.2199,-2.2201,-2.2224,-2.2219,-2.2203,-2.2213,-2.1983,-2.2195,-2.2194,-2.2193,-2.2192,-2.2191,-2.1257,-2.1326,-2.1399,-2.149,-2.1545,-2.1611,-2.1682,-2.1724,-2.1807,-2.1908,-2.1921,-2.2027,-2.2101,-2.2227,-2.2275,-2.236,-2.2339,-2.2372,-2.238,-2.2388,-2.2393,-2.2189,-2.2377,-2.2377,-2.2377,-2.2376,-2.2376,0,-2.1428,-2.1475,-2.1558,-2.1656,-2.1728,-2.1719,-2.1796,-2.1858,-2.1951,-2.202,-2.2097,-2.2212,-2.2306,-2.2364,-2.2459,-2.2516,-2.2517,-2.254,-2.2536,-2.2547,-2.2406,-2.2377,-2.2537,-2.2537,-2.2537,-2.2537,-2.2537,-2.2537,-2.1526,-2.1643,-2.1667,-2.1813,-2.1859,-2.1963,-2.2008,-2.2069,-2.2124,-2.2252,-2.233,-2.2367,-2.2432,-2.2532,-2.2618,-2.2633,-2.2668,-2.2693,-2.2706,-2.2573,-2.2556,-2.254,-2.2513,-2.27,-2.27,-2.2839,-2.2841,-2.2842]},{"header":{"parameterUnit":"m.s-1","parameterCategory":1,"la1":30.2991,"la2":30.254,"lo1":-89.0895,"lo2":-89.0444,"dy":0.0017,"dx":0.0017,"nx":28,"ny":28,"refTime":"2023-09-04T21:00:00:Z","depth":0,"parameterNumber":3,"parameterNumberName":"V-component_of_WINDS"},"data":[0,0,0,0,0,0,0,0,0,0,0,0,0,0,0,0,0,0,0,0,0,0,0,0,0,0,0,0,0,0,0,0,0,0,0,0,0,0,0,0,0,0,0,0,0,0,0,0,0,0,0,0,0,0,0,0,0,0,1.8217,1.8217,0,1.8226,1.8226,1.8226,1.8259,1.826,1.8261,1.8261,1.827,1.8269,1.8269,0,0,0,0,0,0,0,0,0,0,0,0,0,1.8225,1.8225,1.8217,1.8217,1.8217,1.8226,1.8226,1.8226,1.8259,1.826,1.8261,1.8262,1.827,1.8269,1.8269,0,0,0,0,0,0,0,0,0,0,0,0,0,1.8227,1.8225,1.8217,1.8234,1.8236,1.8226,1.8226,1.8226,1.8259,1.826,1.8261,1.8262,1.827,1.8269,1.8269,1.8242,0,0,1.8266,1.8266,0,0,0,0,0,0,0,0,1.8226,1.8226,1.8232,1.8233,1.8235,1.8243,1.8232,1.8231,1.8258,1.825,1.8261,1.8263,1.826,1.826,1.8259,1.8242,1.8242,1.8266,1.8266,1.8266,1.8265,0,0,0,0,0,0,0,1.8226,1.8226,1.822,1.8232,1.8234,1.8241,1.8243,1.8232,1.8248,1.8251,1.8253,1.8254,1.8261,1.826,1.8259,1.8243,1.8266,1.8266,1.8265,1.8265,1.8201,1.82,0,0,0,0,0,0,1.8224,1.8226,1.822,1.8221,1.8233,1.824,1.8242,1.8239,1.8249,1.8251,1.8253,1.8256,1.826,1.826,1.826,1.8227,1.8266,1.8265,1.8265,1.8202,1.8201,1.8199,0,0,0,0,0,0,1.8224,1.8223,1.822,1.8224,1.8224,1.8239,1.8235,1.8239,1.8237,1.825,1.8253,1.8249,1.8261,1.8261,1.8245,1.8228,1.8265,1.8264,1.8204,1.8202,1.82,1.8161,0,0,0,0,0,0,1.8224,1.8223,1.8214,1.8223,1.8224,1.8205,1.8234,1.8238,1.8236,1.824,1.8247,1.825,1.8262,1.8246,1.8245,1.8227,1.8263,1.8205,1.8203,1.8201,1.8164,1.8158,1.8153,0,0,0,0,0,1.8224,1.8203,1.8213,1.8212,1.8212,1.8204,1.8204,1.822,1.8235,1.8225,1.8233,1.8249,1.823,1.8244,1.8243,1.8225,1.8207,1.8204,1.8201,1.8167,1.816,1.8153,0,0,0,0,0,0,1.819,1.8204,1.8216,1.8197,1.8199,1.821,1.8198,1.8212,1.821,1.8213,1.8232,1.8233,1.8214,1.8218,1.8234,1.8198,1.8221,1.8218,1.8196,1.8189,1.8184,1.8182,1.8263,0,0,0,0,0,1.8181,1.8174,1.8186,1.8168,1.8169,1.8183,1.818,1.8192,1.8195,1.8196,1.8203,1.8204,1.8199,1.8194,1.819,1.8166,1.8166,1.8152,1.8147,1.8142,1.8139,1.8123,1.8117,1.819,1.819,1.819,0,0,1.8161,1.8167,1.8162,1.8162,1.8165,1.8156,1.8184,1.8174,1.8167,1.8194,1.8179,1.8184,1.8188,1.8167,1.8158,1.817,1.8119,1.8139,1.8135,1.8134,1.812,1.8113,1.8106,1.8188,1.8188,1.8189,0,0,1.8119,1.8124,1.8109,1.8111,1.8115,1.8124,1.8121,1.8129,1.8133,1.8119,1.8138,1.813,1.8121,1.8121,1.812,1.8077,1.8091,1.8075,1.8046,1.8031,1.8025,1.802,1.8002,1.7995,1.8072,1.8072,1.8072,0,1.8093,1.8081,1.8099,1.8087,1.8085,1.8109,1.8092,1.8094,1.8096,1.8094,1.8108,1.8094,1.8098,1.8077,1.8066,1.8065,1.806,1.8074,1.8025,1.802,1.8015,1.7998,1.7991,1.807,1.807,1.807,1.807,0,1.8048,1.8039,1.8026,1.8027,1.8024,1.801,1.8024,1.8019,1.803,1.8038,1.8021,1.8027,1.8023,1.8019,1.8031,1.7998,1.8005,1.8021,1.8044,1.8005,1.799,1.7983,1.8066,1.8067,1.8068,1.8068,0,0,1.7985,1.7995,1.7989,1.7989,1.7995,1.7988,1.7974,1.797,1.7964,1.7965,1.7952,1.7943,1.7957,1.7956,1.7968,1.7955,1.7917,1.7972,1.7973,1.7959,1.7878,1.7864,1.7857,1.7927,1.7926,1.7925,1.7877,0,1.7943,1.792,1.7934,1.7908,1.7899,1.7921,1.7909,1.7911,1.7917,1.791,1.7917,1.7909,1.793,1.7929,1.7917,1.7924,1.79,1.7928,1.7914,1.7913,1.791,1.7849,1.7834,1.7789,1.7871,1.787,1.787,0,1.7891,1.7888,1.7861,1.7867,1.7863,1.7852,1.7848,1.7841,1.7843,1.7849,1.7846,1.7861,1.7846,1.787,1.7849,1.7868,1.7863,1.7865,1.7864,1.7861,1.7887,1.7842,1.7775,1.7767,1.7861,1.7861,1.7862,0,1.7844,1.7834,1.7816,1.7815,1.7822,1.7813,1.7815,1.7818,1.7814,1.7811,1.7808,1.7803,1.78,1.7795,1.7807,1.7824,1.7784,1.781,1.7786,1.7785,1.7775,1.7775,1.7703,1.7776,1.7776,1.7776,1.7776,0,1.7794,1.7776,1.7794,1.7783,1.7762,1.7779,1.7759,1.7763,1.7765,1.7754,1.7774,1.7763,1.7781,1.7771,1.7781,1.776,1.776,1.7762,1.7765,1.7759,1.7758,1.7754,1.7757,1.7774,1.7775,1.7775,1.7775,0,1.7737,1.7749,1.773,1.7738,1.7739,1.7724,1.773,1.7719,1.7727,1.7712,1.771,1.7721,1.7711,1.7723,1.7714,1.772,1.7692,1.77,1.7691,1.7692,1.7667,1.7668,1.7588,1.7577,1.7659,1.7659,1.7658,0,1.7703,1.769,1.7695,1.7689,1.769,1.7681,1.7676,1.7692,1.7686,1.7686,1.7674,1.7666,1.7659,1.7641,1.7649,1.7641,1.7648,1.762,1.7647,1.7641,1.7644,1.7643,1.7641,1.7614,1.7613,1.7612,1.7612,0,1.7641,1.7647,1.764,1.7634,1.7628,1.7625,1.7623,1.7616,1.7633,1.7625,1.7614,1.7609,1.7599,1.7589,1.7584,1.7586,1.76,1.7604,1.7597,1.759,1.7584,1.7584,1.7673,1.7605,1.7606,1.7606,1.7606,1.7607,1.7593,1.7581,1.7582,1.7573,1.7573,1.757,1.7559,1.7565,1.7556,1.7549,1.7559,1.7545,1.7546,1.7539,1.7539,1.7528,1.7539,1.7531,1.7528,1.7525,1.752,1.7588,1.7527,1.7527,1.7528,1.7528,1.7528,0,1.7529,1.7531,1.7522,1.7518,1.751,1.7526,1.7524,1.7516,1.7503,1.7502,1.7495,1.7482,1.7472,1.7478,1.7469,1.7459,1.7465,1.7456,1.7455,1.7455,1.7511,1.7516,1.7451,1.7451,1.7451,1.7451,1.7451,1.7451,1.7495,1.7474,1.748,1.7459,1.7461,1.7447,1.7444,1.7441,1.744,1.7424,1.7415,1.742,1.7421,1.7412,1.7403,1.7406,1.74,1.7388,1.7392,1.7444,1.7451,1.7458,1.7463,1.7387,1.7387,1.7336,1.7335,1.7335]}]]